Location: Cornospital
(48.0620°N, 3.3837°W)
Time: 20:36:32
(UTC+00:00)

ERS-1 Rocket - Pass Details

Date: 17 June 2021
Orbit: 752 x 758 km, 98.4° (Epoch: 03 August)

Event Time Altitude Azimuth Distance (km) Brightness Sun altitude
Exits shadow 22:24:31 13° 194° (SSW) 2,062 4.8 -14.4°
Maximum altitude 22:28:40 41° 262° (W) 1,088 3.9 -14.7°
Drops below altitude 10° 22:33:27 10° 333° (NNW) 2,300 6.9 -15.0°
Sets 22:35:53 0° 340° (NNW) 3,230 8.1 -15.2°
